CST,Max TemperatureF,Mean TemperatureF,Min TemperatureF,Max Dew PointF,MeanDew PointF,Min DewpointF,Max Humidity, Mean Humidity, Min Humidity, Max Sea Level PressureIn, Mean Sea Level PressureIn, Min Sea Level PressureIn, Max VisibilityMiles, Mean VisibilityMiles, Min VisibilityMiles, Max Wind SpeedMPH, Mean Wind SpeedMPH, Max Gust SpeedMPH,PrecipitationIn, CloudCover, Events, WindDirDegrees
2013-1-1,19,4,-11,12,-3,-20,74,68,57,30.24,30.16,30.01,10,10,10,13,4,,0.00,4,Snow,204
2013-1-2,26,19,12,19,10,3,86,76,67,30.06,29.97,29.92,10,5,1,18,7,23,0.00,7,Snow,209
2013-1-3,21,14,8,10,5,0,79,69,62,30.24,30.18,30.06,10,8,2,18,13,23,0.00,4,Snow,260
2013-1-4,28,22,15,16,11,9,74,66,51,30.12,30.08,30.02,10,10,10,17,11,,0.00,0,,213
2013-1-5,26,19,12,16,10,5,79,69,63,30.06,29.94,29.84,10,10,7,17,9,,0.00,0,,207
2013-1-6,21,14,6,12,7,0,79,70,62,30.20,30.12,30.00,10,10,7,18,8,22,0.00,1,Snow,243
2013-1-7,35,28,21,25,19,12,86,68,52,30.03,29.94,29.90,10,10,7,25,16,34,0.00,0,,192
2013-1-8,37,27,17,28,20,10,86,73,60,29.96,29.87,29.76,10,9,2,22,8,25,0.00,0,,166
2013-1-9,37,32,28,27,22,19,80,64,52,30.35,30.19,29.94,10,10,2,20,13,25,0.00,1,Snow,222
2013-1-10,42,38,33,32,24,16,81,59,34,30.30,30.06,29.72,10,8,1,22,16,30,0.14,4,Rain,145
2013-1-11,44,40,37,39,35,32,87,83,76,29.71,29.51,29.39,10,3,0,20,12,24,0.00,8,,158
2013-1-12,42,25,8,36,9,-2,81,64,53,30.04,29.84,29.40,10,9,2,29,18,37,0.00,6,Snow,263
2013-1-13,12,8,3,1,-2,-6,72,64,56,30.22,30.09,30.00,10,10,5,16,11,17,0.00,2,Snow,284
2013-1-14,19,12,6,9,4,0,79,67,54,30.37,30.31,30.22,10,9,2,12,6,16,0.00,3,Snow,230
2013-1-15,33,24,15,18,12,7,68,59,48,30.26,30.13,29.87,10,10,10,21,12,28,0.00,1,,192
2013-1-16,42,28,15,30,20,3,81,69,57,30.18,29.86,29.68,10,8,1,23,16,28,0.01,4,Rain-Snow,265
2013-1-17,26,17,8,12,5,-4,73,60,42,30.37,30.32,30.20,10,10,10,16,7,17,0.00,3,,272
2013-1-18,46,34,21,30,24,12,75,64,49,30.24,29.89,29.74,10,10,10,24,11,32,0.00,1,,197
2013-1-19,42,24,6,30,18,-8,81,64,49,30.19,29.86,29.69,10,10,5,38,12,51,0.00,2,,267
2013-1-20,12,6,1,0,-6,-11,66,56,41,30.35,30.27,30.20,10,10,4,21,15,33,0.00,2,Snow,292
2013-1-21,1,-3,-7,-9,-16,-20,66,54,46,30.31,30.26,30.23,10,9,3,22,16,28,0.00,0,,286
2013-1-22,10,2,-7,-2,-12,-18,65,55,44,30.34,30.28,30.20,10,10,10,12,6,,0.00,2,,270
2013-1-23,19,10,0,9,-1,-18,79,57,39,30.54,30.23,30.10,10,8,1,26,10,34,0.00,4,Snow,284
2013-1-24,17,8,-2,3,-11,-18,53,44,32,30.61,30.43,30.15,10,10,4,17,10,23,0.00,1,Rain,108
2013-1-25,24,14,3,12,2,-6,68,57,39,30.25,30.07,29.95,10,10,5,36,14,45,0.00,3,Rain-Snow,264
2013-1-26,28,14,1,7,0,-8,72,51,34,30.30,30.21,30.09,10,10,10,21,7,26,0.00,3,,146
2013-1-27,35,32,30,30,21,7,81,63,37,30.08,29.90,29.76,10,6,2,23,14,29,0.14,7,Rain-Snow,141
2013-1-28,37,35,33,32,30,28,87,82,81,29.89,29.79,29.60,7,2,0,8,2,,0.25,8,Fog-Rain-Snow-Thunderstorm,118
2013-1-29,37,34,30,32,29,21,87,76,60,29.68,29.59,29.50,10,6,0,22,8,28,0.00,8,Fog-Snow,325
2013-1-30,30,20,10,21,11,1,74,66,58,29.73,29.63,29.56,10,8,4,28,20,33,0.00,8,Snow,317
2013-1-31,10,2,-5,1,-10,-17,67,61,55,30.24,29.99,29.74,10,7,3,25,20,32,0.00,3,,287